Starlink 6375

operational
NORAD ID: 57342 Int'l Des: 2023-099 Owner: SPXS Country: US Constellation: starlink
LEOCIRCULAR

Über Starlink 6375

Beschreibung wird geladen...

Live-Position

3D-Globus wird geladen...

Nächste Überflüge

Höhenverlauf

Altitude vs Time

uPlot chart will show altitude changes over time

Zweizeiliger Elementsatz

1 57342U 23099Q 25350.68171364 .00001972 00000-0 16097-3 0 9990
2 57342 43.0053 339.7043 0001289 272.2799 87.7896 15.02552722133637
Epoch: 16. Dez. 2025 • Age: 18 hours

Aktueller Status

Höhe 559.3 km
Geschwindigkeit 7.58 km/s
Subsatellitenpunkt -3.35°S, 88.14°W
Startdatum 16. Juli 2023
Alter 2.4 years
Typ internet

Technische Details

Klassifizierung Payload
Masse 305.00 kg
Trockenmasse 290.00 kg
Gesamtmasse 305.00 kg
Länge 0.20 m
Durchmesser 2.80 m
Spannweite 9.00 m
Form Box + pan
Hersteller SPXS
Bus-Typ Starlink
Phasenstatus In Orbit
Besitzer/Staat SPXS/US

Große Konstellationen

Loading constellations...